WGS F5 (USA 243)

Last updated on Mon Nov 03 2025 00:02:57 GMT+0000 (Coordinated Universal Time)

1 39168U 13024A 25306.38494117 .00000000 00000+0 00000+0 0 9998 2 39168 0.0168 241.4876 0000259 13.2032 233.3032 1.00268512 44901
UTC large
Height (km)
Speed (km/s)
/
Latitude / Longitude
Inclination (degrees)
Orbital Period (minutes)
Azimuth
Elevation
Range (km)
Doppler Factor

Next 0 passes for location: London (51.5072 / 0.1276)

Sorry there are no passes over London.